Location: Casaglia
(44.0333°N, 11.5167°E)
Time: 22:26:16
(UTC+00:00)

STARLINK-29 - Visible Passes

Search period start: 01 October 2020 00:00
Search period end: 11 October 2020 00:00
Orbit: 231 x 236 km, 53.0° (Epoch: 01 October)

Date Brightness Start Highest point End Pass type
(mag) Time Alt. Az. Time Alt. Az. Time Alt. Az.
07 Oct 4.3 17:29:00 10° SSE 17:29:44 11° SE 17:29:50 11° SE visible
08 Oct 4.0 17:14:13 10° S 17:15:33 15° SE 17:16:47 10° E visible
09 Oct 5.2 18:31:57 10° W 18:32:40 16° WNW 18:32:40 16° WNW visible
10 Oct 4.5 18:17:51 10° WNW 18:19:11 20° NW 18:19:11 20° NW visible
